Flag for Germany Weather past 2 weeks in Dillenburg, Hesse, Germany

Now
52 °F

Scattered clouds.


Feels Like: 47 °F
Forecast: 46 / 66 °F
Wind: 15 mph from Northeast

Location: Hessen


UV Index: 3 (Moderate)

Visibility: N/A


Pressure: 29.92 "Hg

Humidity: 72%

Dew point: 43 °F

Location of DillenburgLocation

Historic Weather in Dillenburg

°F

Dillenburg temperature yesterday

Maximum temperature yesterday: 48 °F (at 2:50 PM)
Minimum temperature yesterday: 37 °F (at 7:50 AM)
Average temperature yesterday: 43 °F

Past Weeks' High & Low Weather Summary

 TemperatureHumidityPressure
High63 °F (Apr 4, 3:20 PM)100% (Apr 5, 7:50 AM)30.39 "Hg (Apr 5, 7:50 AM)
Low32 °F (Apr 15, 6:50 AM)41% (Apr 17, 5:50 PM)29.77 "Hg (Apr 4, 3:20 PM)
Average47 °F74%30.07 "Hg
* Reported Apr 4 3:20 PM — Apr 19 3:20 PM, Dillenburg, Weather by CustomWeather, © 2014

Note: Actual official high and low records may vary slightly from our data, if they occured in-between our weather recording intervals... More about our weather records

Advertising

Historic Weather Conditions — Data for Previous 24 hours

 ConditionsComfort  
Time TempWeatherWind HumidityBarometerVisibility
3:20 PM
Apr 19
52 °FScattered clouds.18 mph67%29.92 "HgN/A
2:50 PM52 °FPassing clouds.15 mph67%29.95 "HgN/A
2:20 PM52 °FPassing clouds.16 mph62%29.95 "HgN/A
1:50 PM50 °FPassing clouds.16 mph62%29.95 "HgN/A
1:20 PM48 °FPassing clouds.16 mph66%29.98 "HgN/A
12:50 PM46 °FPassing clouds.14 mph71%29.98 "HgN/A
12:20 PM46 °FScattered clouds.15 mph71%29.98 "HgN/A
11:50 AM43 °FScattered clouds.13 mph76%29.98 "HgN/A
11:20 AM43 °FPartly sunny.15 mph76%30.01 "HgN/A
10:50 AM41 °FPartly sunny.14 mph87%30.01 "HgN/A
10:20 AM39 °FPartly sunny.9 mph93%30.01 "HgN/A
9:50 AM36 °FLow clouds.10 mph100%30.01 "Hg5 mi
9:20 AM36 °FFog.10 mph100%30.01 "Hg3 mi
8:50 AM36 °FFog.13 mph100%29.98 "Hg1 mi
8:20 AM36 °FPartly sunny.9 mph100%29.98 "Hg5 mi
7:50 AM36 °FScattered clouds.6 mph100%29.98 "HgN/A
8:50 PM
Apr 18
43 °FPartly sunny.8 mph66%29.92 "HgN/A
8:20 PM43 °FScattered clouds.8 mph66%29.89 "HgN/A
7:50 PM43 °FScattered clouds.9 mph61%29.89 "HgN/A
7:20 PM45 °FPassing clouds.13 mph57%29.89 "HgN/A
6:50 PM45 °FPassing clouds.13 mph53%29.89 "HgN/A
6:20 PM45 °FScattered clouds.12 mph57%29.89 "HgN/A
5:50 PM46 °FScattered clouds.16 mph53%29.89 "HgN/A
5:20 PM45 °FScattered clouds.18 mph57%29.89 "HgN/A
4:50 PM45 °FScattered clouds.14 mph61%29.89 "HgN/A
4:20 PM45 °FScattered clouds.17 mph61%29.89 "HgN/A
Weather by CustomWeather, © 2014

See weather overview